This is the latest recevied weather packets stored in our database for station/object WP3OF-2. If no packets are shown the sender has not sent any weather packets the latest 10 day(s).
| Time | Temp. | Humidity | Pressure | Rain* | Wind** | Luminosity | Snow |
|---|---|---|---|---|---|---|---|
| 1777997923 | 22.78° C | 90% | 1027.9 hPa | 0 mm | - | 305 W/m² | - |
| 1777997620 | 22.78° C | 90% | 1027.9 hPa | 0 mm | - | 219 W/m² | - |
| 1777997317 | 23.33° C | 88% | 1027.9 hPa | 0 mm | - | 376 W/m² | - |
| 1777997015 | 23.33° C | 89% | 1027.9 hPa | 0 mm | - | 902 W/m² | - |
| 1777996711 | 22.78° C | 88% | 1027.4 hPa | 0 mm | - | 868 W/m² | - |
| 1777996407 | 22.78° C | 88% | 1027.4 hPa | 0 mm | - | 507 W/m² | - |
| 1777996104 | 22.78° C | 88% | 1027.9 hPa | 0 mm | - | 978 W/m² | - |
| 1777995795 | 22.78° C | 87% | 1027.4 hPa | 0 mm | - | 895 W/m² | - |
| 1777995491 | 22.78° C | 89% | 1027.4 hPa | 0 mm | - | 868 W/m² | - |
| 1777995189 | 22.78° C | 89% | 1027.4 hPa | 0 mm | - | 856 W/m² | - |
| 1777994886 | 22.22° C | 90% | 1027.4 hPa | 0 mm | - | 1005 W/m² | - |
| 1777994582 | 22.22° C | 90% | 1027.4 hPa | 0 mm | - | 698 W/m² | - |
| 1777994276 | 22.78° C | 87% | 1027.4 hPa | 0 mm | - | 865 W/m² | - |
| 1777993974 | 22.22° C | 87% | 1027.4 hPa | 0 mm | - | 935 W/m² | - |
| 1777993671 | 22.78° C | 89% | 1027.9 hPa | 0 mm | - | 888 W/m² | - |
| 1777993368 | 22.78° C | 88% | 1027.9 hPa | 0 mm | - | 352 W/m² | - |
| 1777993068 | 22.22° C | 88% | 1027.4 hPa | 0 mm | - | 854 W/m² | - |
| 1777992767 | 21.67° C | 90% | 1027.9 hPa | 0 mm | - | 676 W/m² | - |
| 1777992464 | 22.22° C | 90% | 1027.9 hPa | 0 mm | - | 206 W/m² | - |
| 1777992162 | 22.22° C | 89% | 1027.4 hPa | 0 mm | - | 949 W/m² | - |
| 1777991859 | 22.22° C | 90% | 1027.4 hPa | 0 mm | - | 597 W/m² | - |
| 1777991556 | 22.22° C | 91% | 1027.4 hPa | 0 mm | - | 980 W/m² | - |
| 1777991253 | 21.67° C | 93% | 1027.4 hPa | 0 mm | - | 1056 W/m² | - |
| 1777990950 | 21.67° C | 92% | 1027.4 hPa | 0 mm | - | 175 W/m² | - |
| 1777990648 | 21.67° C | 92% | 1027.4 hPa | 0 mm | - | 488 W/m² | - |
* Rain latest hour (hover to see other rain measurements)
** Current wind speed in m/s (hover to see current wind gust speed)